| time (UTC) | temp C | wind direction | speed KPH | gust KPH | rain 1hr cm | rain 24hr cm | rain mn cm | humidity % | barometer mb |
| 20260505051904 | 14 | 156 | 4.8 | 6.4 | 0.00 | 0.00 | 0.00 | 79 | 1014.5 |
| 20260505051401 | 14 | 180 | 3.2 | 6.4 | 0.00 | 0.00 | 0.00 | 79 | 1014.5 |
| 20260505050859 | 14 | 154 | 6.4 | 6.4 | 0.00 | 0.00 | 0.00 | 78 | 1014.6 |
| 20260505050357 | 15 | 172 | 3.2 | 6.4 | 0.00 | 0.00 | 0.00 | 78 | 1014.8 |
| 20260505041325 | 15 | 148 | 6.4 | 8.0 | 0.00 | 0.00 | 0.00 | 75 | 1015.1 |
| 20260505040821 | 15 | 180 | 3.2 | 8.0 | 0.00 | 0.00 | 0.00 | 75 | 1015.0 |
| 20260505040319 | 15 | 155 | 4.8 | 8.0 | 0.00 | 0.00 | 0.00 | 75 | 1015.1 |
| 20260505035816 | 15 | 167 | 4.8 | 8.0 | 0.00 | 0.00 | 0.00 | 74 | 1014.9 |
| 20260505035311 | 15 | 203 | 6.4 | 9.7 | 0.00 | 0.00 | 0.00 | 74 | 1015.0 |
| 20260505034809 | 15 | 177 | 3.2 | 8.0 | 0.00 | 0.00 | 0.00 | 73 | 1014.9 |
| 20260505034306 | 15 | 168 | 3.2 | 9.7 | 0.00 | 0.00 | 0.00 | 72 | 1015.0 |
| 20260505033803 | 15 | 173 | 3.2 | 8.0 | 0.00 | 0.00 | 0.00 | 72 | 1015.0 |
| 20260505033259 | 15 | 164 | 6.4 | 9.7 | 0.00 | 0.00 | 0.00 | 71 | 1014.9 |
| 20260505032758 | 15 | 176 | 3.2 | 6.4 | 0.00 | 0.00 | 0.00 | 71 | 1015.0 |
| 20260505032254 | 16 | 158 | 9.7 | 9.7 | 0.00 | 0.00 | 0.00 | 70 | 1015.1 |
| 20260505031751 | 16 | 201 | 3.2 | 12.9 | 0.00 | 0.00 | 0.00 | 69 | 1015.1 |
| 20260505031247 | 15 | 178 | 4.8 | 8.0 | 0.00 | 0.00 | 0.00 | 69 | 1015.3 |
| 20260505030744 | 16 | 145 | 4.8 | 8.0 | 0.00 | 0.00 | 0.00 | 68 | 1015.3 |
| 20260505030240 | 15 | 156 | 3.2 | 8.0 | 0.00 | 0.00 | 0.00 | 68 | 1015.2 |
| 20260505025736 | 16 | 166 | 4.8 | 6.4 | 0.00 | 0.00 | 0.00 | 67 | 1015.1 |
| 20260505025234 | 16 | 157 | 4.8 | 8.0 | 0.00 | 0.00 | 0.00 | 65 | 1015.1 |
| 20260505024732 | 16 | 163 | 3.2 | 8.0 | 0.00 | 0.00 | 0.00 | 64 | 1015.2 |
| 20260505024229 | 16 | 178 | 4.8 | 8.0 | 0.00 | 0.00 | 0.00 | 63 | 1015.2 |
| 20260505023727 | 16 | 180 | 3.2 | 6.4 | 0.00 | 0.00 | 0.00 | 62 | 1015.2 |
| 20260505023224 | 16 | 163 | 4.8 | 6.4 | 0.00 | 0.00 | 0.00 | 62 | 1015.2 |
| 20260505022721 | 16 | 159 | 3.2 | 6.4 | 0.00 | 0.00 | 0.00 | 61 | 1015.4 |
| 20260505022218 | 17 | 160 | 4.8 | 11.3 | 0.00 | 0.00 | 0.00 | 60 | 1015.3 |
| 20260505021714 | 16 | 163 | 4.8 | 8.0 | 0.00 | 0.00 | 0.00 | 61 | 1015.2 |
| 20260505021212 | 16 | 185 | 4.8 | 8.0 | 0.00 | 0.00 | 0.00 | 61 | 1015.3 |
| 20260505020707 | 16 | 177 | 3.2 | 6.4 | 0.00 | 0.00 | 0.00 | 61 | 1015.5 |
| 20260505020203 | 16 | 167 | 6.4 | 8.0 | 0.00 | 0.00 | 0.00 | 61 | 1015.2 |
| 20260505015700 | 16 | 180 | 1.6 | 11.3 | 0.00 | 0.00 | 0.00 | 60 | 1015.3 |
| 20260505015157 | 16 | 145 | 6.4 | 8.0 | 0.00 | 0.00 | 0.00 | 61 | 1015.2 |
| 20260505014654 | 16 | 270 | 0.0 | 8.0 | 0.00 | 0.00 | 0.00 | 62 | 1015.4 |
| 20260505014151 | 16 | 173 | 3.2 | 4.8 | 0.00 | 0.00 | 0.00 | 62 | 1015.5 |
| 20260505013648 | 16 | 156 | 6.4 | 9.7 | 0.00 | 0.00 | 0.00 | 62 | 1015.4 |
| 20260505013145 | 16 | 154 | 4.8 | 9.7 | 0.00 | 0.00 | 0.00 | 62 | 1015.2 |
| 20260505012644 | 16 | 189 | 3.2 | 8.0 | 0.00 | 0.00 | 0.00 | 62 | 1015.3 |
| 20260505012140 | 16 | 180 | 4.8 | 8.0 | 0.00 | 0.00 | 0.00 | 62 | 1015.1 |
| 20260505011636 | 16 | 131 | 4.8 | 12.9 | 0.00 | 0.00 | 0.00 | 62 | 1015.0 |
| 20260505011134 | 16 | 180 | 6.4 | 8.0 | 0.00 | 0.00 | 0.00 | 63 | 1015.0 |
| 20260505010634 | 16 | 156 | 6.4 | 8.0 | 0.00 | 0.00 | 0.00 | 63 | 1015.0 |
| 20260505010131 | 16 | 172 | 3.2 | 9.7 | 0.00 | 0.00 | 0.00 | 62 | 1015.0 |
| 20260505005627 | 16 | 182 | 4.8 | 8.0 | 0.00 | 0.00 | 0.00 | 62 | 1014.9 |
| 20260505005124 | 16 | 270 | 0.0 | 8.0 | 0.00 | 0.00 | 0.00 | 62 | 1014.8 |
| 20260505004621 | 16 | 161 | 6.4 | 8.0 | 0.00 | 0.00 | 0.00 | 63 | 1014.7 |
| 20260505004118 | 16 | 153 | 4.8 | 6.4 | 0.00 | 0.00 | 0.00 | 63 | 1014.8 |
| 20260505003615 | 16 | 182 | 4.8 | 8.0 | 0.00 | 0.00 | 0.00 | 63 | 1014.7 |
| 20260505003113 | 16 | 182 | 4.8 | 9.7 | 0.00 | 0.00 | 0.00 | 63 | 1014.6 |
| 20260505002608 | 16 | 158 | 8.0 | 8.0 | 0.00 | 0.00 | 0.00 | 64 | 1014.8 |
| 20260505002107 | 16 | 180 | 4.8 | 9.7 | 0.00 | 0.00 | 0.00 | 64 | 1014.6 |
| 20260505001604 | 16 | 168 | 3.2 | 6.4 | 0.00 | 0.00 | 0.00 | 64 | 1014.6 |
| 20260505001101 | 16 | 179 | 8.0 | 8.0 | 0.00 | 0.00 | 0.00 | 64 | 1014.6 |
| 20260505000558 | 16 | 170 | 4.8 | 11.3 | 0.00 | 0.00 | 0.00 | 64 | 1014.5 |
| 20260505000056 | 16 | 148 | 6.4 | 6.4 | 0.00 | 0.00 | 0.00 | 64 | 1014.5 |
| 20260504235552 | 16 | 190 | 8.0 | 8.0 | 0.00 | 0.00 | 0.00 | 64 | 1014.5 |
| 20260504235049 | 16 | 172 | 6.4 | 8.0 | 0.00 | 0.00 | 0.00 | 63 | 1014.2 |
| 20260504234546 | 16 | 140 | 4.8 | 9.7 | 0.00 | 0.00 | 0.00 | 62 | 1014.4 |
| 20260504234043 | 16 | 157 | 4.8 | 11.3 | 0.00 | 0.00 | 0.00 | 60 | 1014.2 |
| 20260504233538 | 17 | 160 | 4.8 | 8.0 | 0.00 | 0.00 | 0.00 | 59 | 1014.2 |
| 20260504233035 | 17 | 181 | 9.7 | 14.5 | 0.00 | 0.00 | 0.00 | 58 | 1014.1 |
| 20260504232532 | 17 | 156 | 8.0 | 8.0 | 0.00 | 0.00 | 0.00 | 57 | 1014.3 |
| 20260504232030 | 17 | 180 | 3.2 | 11.3 | 0.00 | 0.00 | 0.00 | 56 | 1014.4 |
| 20260504231526 | 17 | 139 | 6.4 | 8.0 | 0.00 | 0.00 | 0.00 | 55 | 1014.4 |
| 20260504231022 | 17 | 164 | 6.4 | 8.0 | 0.00 | 0.00 | 0.00 | 53 | 1014.2 |
| 20260504230519 | 18 | 176 | 6.4 | 11.3 | 0.00 | 0.00 | 0.00 | 52 | 1013.8 |
| 20260504230018 | 18 | 160 | 8.0 | 8.0 | 0.00 | 0.00 | 0.00 | 52 | 1014.1 |
| 20260504225515 | 18 | 178 | 6.4 | 8.0 | 0.00 | 0.00 | 0.00 | 51 | 1013.9 |
| 20260504225012 | 18 | 179 | 6.4 | 11.3 | 0.00 | 0.00 | 0.00 | 49 | 1013.9 |
| 20260504224509 | 18 | 141 | 4.8 | 8.0 | 0.00 | 0.00 | 0.00 | 49 | 1013.7 |
| 20260504224006 | 18 | 182 | 4.8 | 8.0 | 0.00 | 0.00 | 0.00 | 49 | 1013.9 |
| 20260504223502 | 18 | 182 | 6.4 | 9.7 | 0.00 | 0.00 | 0.00 | 48 | 1013.8 |
| 20260504222957 | 18 | 159 | 8.0 | 17.7 | 0.00 | 0.00 | 0.00 | 47 | 1014.0 |
| 20260504222455 | 18 | 173 | 6.4 | 12.9 | 0.00 | 0.00 | 0.00 | 49 | 1013.9 |
| 20260504221952 | 18 | 187 | 8.0 | 11.3 | 0.00 | 0.00 | 0.00 | 49 | 1014.0 |
| 20260504221449 | 18 | 161 | 9.7 | 14.5 | 0.00 | 0.00 | 0.00 | 50 | 1013.8 |
| 20260504220946 | 18 | 185 | 8.0 | 8.0 | 0.00 | 0.00 | 0.00 | 50 | 1013.8 |
| 20260504220443 | 18 | 157 | 8.0 | 12.9 | 0.00 | 0.00 | 0.00 | 49 | 1014.1 |
| 20260504215940 | 19 | 175 | 8.0 | 12.9 | 0.00 | 0.00 | 0.00 | 48 | 1013.9 |
| 20260504215436 | 19 | 155 | 11.3 | 17.7 | 0.00 | 0.00 | 0.00 | 47 | 1014.0 |
| 20260504214933 | 20 | 188 | 4.8 | 16.1 | 0.00 | 0.00 | 0.00 | 45 | 1014.0 |
| 20260504214429 | 20 | 188 | 6.4 | 9.7 | 0.00 | 0.00 | 0.00 | 45 | 1014.0 |
| 20260504213926 | 20 | 172 | 6.4 | 14.5 | 0.00 | 0.00 | 0.00 | 44 | 1014.0 |
| 20260504213422 | 20 | 237 | 4.8 | 14.5 | 0.00 | 0.00 | 0.00 | 45 | 1013.9 |
| 20260504212920 | 20 | 159 | 16.1 | 16.1 | 0.00 | 0.00 | 0.00 | 44 | 1013.9 |
| 20260504212415 | 20 | 135 | 3.2 | 19.3 | 0.00 | 0.00 | 0.00 | 43 | 1013.8 |
| 20260504211914 | 20 | 194 | 4.8 | 14.5 | 0.00 | 0.00 | 0.00 | 43 | 1014.1 |
| 20260504211410 | 20 | 169 | 8.0 | 12.9 | 0.00 | 0.00 | 0.00 | 44 | 1014.0 |
| 20260504210907 | 20 | 193 | 9.7 | 20.9 | 0.00 | 0.00 | 0.00 | 44 | 1014.0 |
| 20260504210404 | 20 | 163 | 3.2 | 14.5 | 0.00 | 0.00 | 0.00 | 44 | 1013.8 |
| 20260504205901 | 20 | 139 | 9.7 | 17.7 | 0.00 | 0.00 | 0.00 | 45 | 1013.9 |
| 20260504205359 | 20 | 161 | 14.5 | 16.1 | 0.00 | 0.00 | 0.00 | 44 | 1013.9 |
| 20260504204857 | 20 | 209 | 4.8 | 12.9 | 0.00 | 0.00 | 0.00 | 44 | 1013.8 |
| 20260504204355 | 20 | 157 | 9.7 | 20.9 | 0.00 | 0.00 | 0.00 | 44 | 1014.0 |
| 20260504203854 | 21 | 214 | 8.0 | 12.9 | 0.00 | 0.00 | 0.00 | 42 | 1013.8 |
| 20260504203350 | 21 | 180 | 8.0 | 12.9 | 0.00 | 0.00 | 0.00 | 43 | 1013.9 |
| 20260504202847 | 21 | 169 | 6.4 | 14.5 | 0.00 | 0.00 | 0.00 | 43 | 1013.8 |
| 20260504202344 | 20 | 142 | 3.2 | 12.9 | 0.00 | 0.00 | 0.00 | 46 | 1014.0 |
| 20260504201840 | 20 | 170 | 4.8 | 14.5 | 0.00 | 0.00 | 0.00 | 48 | 1014.1 |
| 20260504201338 | 20 | 178 | 6.4 | 8.0 | 0.00 | 0.00 | 0.00 | 51 | 1013.7 |
| 20260504200835 | 20 | 129 | 8.0 | 14.5 | 0.00 | 0.00 | 0.00 | 52 | 1013.7 |
| 20260504200331 | 20 | 163 | 9.7 | 12.9 | 0.00 | 0.00 | 0.00 | 52 | 1013.9 |
| 20260504195828 | 20 | 176 | 6.4 | 16.1 | 0.00 | 0.00 | 0.00 | 51 | 1013.9 |
| 20260504195323 | 20 | 119 | 4.8 | 19.3 | 0.00 | 0.00 | 0.00 | 51 | 1014.2 |
| 20260504194821 | 20 | 162 | 8.0 | 16.1 | 0.00 | 0.00 | 0.00 | 49 | 1014.2 |
| 20260504194316 | 20 | 168 | 8.0 | 17.7 | 0.00 | 0.00 | 0.00 | 46 | 1014.3 |
| 20260504193812 | 21 | 174 | 8.0 | 14.5 | 0.00 | 0.00 | 0.00 | 46 | 1013.9 |
| 20260504193310 | 21 | 170 | 14.5 | 16.1 | 0.00 | 0.00 | 0.00 | 48 | 1014.0 |
| 20260504192809 | 20 | 141 | 8.0 | 20.9 | 0.00 | 0.00 | 0.00 | 48 | 1014.1 |
| 20260504192306 | 21 | 159 | 3.2 | 20.9 | 0.00 | 0.00 | 0.00 | 47 | 1014.3 |
| 20260504191805 | 20 | 159 | 6.4 | 16.1 | 0.00 | 0.00 | 0.00 | 47 | 1014.4 |
| 20260504191301 | 21 | 180 | 9.7 | 25.7 | 0.00 | 0.00 | 0.00 | 47 | 1014.5 |
| 20260504190757 | 21 | 127 | 9.7 | 12.9 | 0.00 | 0.00 | 0.00 | 46 | 1014.4 |
| 20260504190253 | 21 | 188 | 9.7 | 16.1 | 0.00 | 0.00 | 0.00 | 46 | 1014.4 |
| 20260504185750 | 21 | 151 | 9.7 | 16.1 | 0.00 | 0.00 | 0.00 | 46 | 1014.6 |
| 20260504185247 | 20 | 179 | 9.7 | 24.1 | 0.00 | 0.00 | 0.00 | 47 | 1014.5 |
| 20260504184743 | 20 | 161 | 9.7 | 17.7 | 0.00 | 0.00 | 0.00 | 48 | 1014.7 |
| 20260504184239 | 20 | 131 | 4.8 | 11.3 | 0.00 | 0.00 | 0.00 | 48 | 1014.6 |
| 20260504183735 | 21 | 193 | 4.8 | 11.3 | 0.00 | 0.00 | 0.00 | 48 | 1014.7 |
| 20260504183232 | 21 | 109 | 4.8 | 12.9 | 0.00 | 0.00 | 0.00 | 48 | 1014.8 |
| 20260504182730 | 20 | 116 | 4.8 | 12.9 | 0.00 | 0.00 | 0.00 | 51 | 1014.9 |
| 20260504182227 | 20 | 158 | 8.0 | 11.3 | 0.00 | 0.00 | 0.00 | 49 | 1014.9 |
| 20260504181725 | 20 | 109 | 11.3 | 14.5 | 0.00 | 0.00 | 0.00 | 51 | 1015.1 |
| 20260504181222 | 21 | 162 | 6.4 | 12.9 | 0.00 | 0.00 | 0.00 | 50 | 1015.3 |
| 20260504180721 | 21 | 153 | 6.4 | 11.3 | 0.00 | 0.00 | 0.00 | 48 | 1015.3 |
| 20260504180219 | 20 | 181 | 8.0 | 17.7 | 0.00 | 0.00 | 0.00 | 49 | 1015.4 |
| 20260504175716 | 21 | 157 | 8.0 | 16.1 | 0.00 | 0.00 | 0.00 | 48 | 1015.3 |
| 20260504175213 | 21 | 195 | 6.4 | 9.7 | 0.00 | 0.00 | 0.00 | 47 | 1015.4 |
| 20260504174711 | 21 | 126 | 9.7 | 27.4 | 0.00 | 0.00 | 0.00 | 51 | 1015.5 |
| 20260504174209 | 22 | 174 | 4.8 | 9.7 | 0.00 | 0.00 | 0.00 | 36 | 1015.5 |
| 20260504173704 | 23 | 184 | 4.8 | 9.7 | 0.00 | 0.00 | 0.00 | 28 | 1015.6 |
| 20260504173202 | 22 | 119 | 11.3 | 14.5 | 0.00 | 0.00 | 0.00 | 38 | 1015.5 |
| 20260504172658 | 23 | 291 | 1.6 | 14.5 | 0.00 | 0.00 | 0.00 | 26 | 1015.8 |
| 20260504172155 | 22 | 168 | 3.2 | 9.7 | 0.00 | 0.00 | 0.00 | 28 | 1015.5 |
| 20260504171651 | 23 | 177 | 4.8 | 9.7 | 0.00 | 0.00 | 0.00 | 28 | 1015.6 |
| 20260504171149 | 23 | 165 | 4.8 | 11.3 | 0.00 | 0.00 | 0.00 | 28 | 1015.8 |
| 20260504170645 | 22 | 228 | 6.4 | 9.7 | 0.00 | 0.00 | 0.00 | 27 | 1015.8 |
| 20260504170143 | 22 | 161 | 4.8 | 9.7 | 0.00 | 0.00 | 0.00 | 27 | 1015.9 |
| 20260504151028 | 21 | 257 | 1.6 | 8.0 | 0.00 | 0.00 | 0.00 | 33 | 1017.1 |
| 20260504150525 | 20 | 201 | 4.8 | 11.3 | 0.00 | 0.00 | 0.00 | 34 | 1017.2 |
| 20260504140951 | 19 | 161 | 6.4 | 17.7 | 0.00 | 0.00 | 0.00 | 33 | 1017.6 |
| 20260504140447 | 19 | 160 | 11.3 | 14.5 | 0.00 | 0.00 | 0.00 | 33 | 1017.6 |
| 20260504130412 | 17 | 185 | 9.7 | 11.3 | 0.00 | 0.00 | 0.00 | 43 | 1018.1 |
| 20260504110259 | 11 | 162 | 4.8 | 9.7 | 0.00 | 0.00 | 0.00 | 66 | 1019.0 |
| 20260504100217 | 8 | 151 | 3.2 | 8.0 | 0.00 | 0.00 | 0.00 | 69 | 1018.8 |
| 20260504090140 | 9 | 196 | 3.2 | 8.0 | 0.00 | 0.00 | 0.00 | 66 | 1018.8 |
| 20260504081610 | 8 | 208 | 3.2 | 4.8 | 0.00 | 0.00 | 0.00 | 63 | 1018.5 |
| 20260504081106 | 8 | 117 | 3.2 | 3.2 | 0.00 | 0.00 | 0.00 | 63 | 1018.7 |
| 20260504080603 | 8 | 170 | 4.8 | 4.8 | 0.00 | 0.00 | 0.00 | 64 | 1018.7 |